Location: Jefferson
(30.9666°N, 81.7901°W)
Time: 19:59:57
(UTC+00:00)

ACS3 Solar Sail - Pass Details

Date: 21 September 2024
Orbit: 960 x 1036 km, 97.4° (Epoch: 09 October)

Event Time Altitude Azimuth Distance (km) Brightness Sun altitude
Rises 15:55:09 0° 347° (NNW) 3,753 4.5 53.6°
Reaches altitude 10° 15:59:10 10° 322° (NW) 2,782 3.9 54.2°
Drops below altitude 10° 16:04:35 10° 270° (W) 2,753 4.1 54.8°
Enters shadow 16:50:15 -74° 139° (SE) 13,270 7.2 58.9°
Exits shadow 17:14:46 -47° 42° (NE) 10,641 6.6 59.7°
Maximum altitude 00:16:59 14° 64° (ENE) 2,558 3.5 -11.8°
